Location: Unspecified
(0.0000°N, 0.0000°E)
Time: 07:43:20
(UTC+02:00)

IUS-9 SRM-1 - Visible Passes

Search period start: 20 April 2014 00:00
Search period end: 30 April 2014 00:00
Orbit: 227 x 21016 km, 26.4° (Epoch: 19 April)

Date Brightness Start Highest point End Pass type
(mag) Time Alt. Az. Time Alt. Az. Time Alt. Az.
20 Apr 8.9 00:00:00 45° ENE 23:59:45 46° ENE 03:41:14 10° ENE visible
20 Apr 7.5 06:22:07 10° WNW 10:39:24 79° NNE 10:51:59 10° ESE visible
20 Apr 7.2 23:36:36 10° WSW 23:54:50 81° NNW 04:27:04 10° ENE visible
21 Apr 7.0 07:26:04 10° WNW 11:13:26 90° SSW 11:23:35 10° ESE visible
22 Apr 7.5 00:08:29 10° WSW 00:32:00 74° NNW 05:08:02 10° ENE visible
23 Apr 7.7 00:40:21 10° W 01:11:39 67° NNW 05:45:49 10° ENE visible
24 Apr 7.9 01:12:18 10° W 01:55:37 62° NNW 06:21:21 10° E visible
25 Apr 8.0 01:44:24 10° W 02:48:25 59° NNW 06:55:12 10° E visible
25 Apr 5.6 19:48:36 10° S 19:53:57 26° SE 20:14:01 10° E visible
26 Apr 8.2 02:16:49 10° W 06:14:19 57° NNE 07:27:44 10° E visible
26 Apr 5.5 20:17:30 10° SSW 20:23:42 39° SE 21:00:51 10° ENE visible
27 Apr 8.4 02:49:43 10° W 07:11:11 61° NNE 07:59:13 10° E visible
27 Apr 5.5 20:46:20 10° SW 20:53:21 54° SE 21:59:16 10° ENE visible
28 Apr 8.6 03:23:23 10° WNW 07:55:16 65° NNE 08:29:48 10° E visible
28 Apr 5.7 21:15:02 10° SW 21:23:04 69° SE 23:28:25 10° ENE visible
29 Apr 8.6 03:58:09 10° WNW 08:33:35 70° NNE 08:59:38 10° ESE visible
29 Apr 6.0 21:43:33 10° WSW 21:52:58 83° SSE 00:00:00 16° ENE visible
